Willimantic, CT

12:21 AM EST on December 16, 2019 (GMT -0500)
Windham

Weather History for KIJD - November, 2019

Change the Weather History Date:

Thursday, November 14, 2019

  Actual Average Record
Temperature  
Mean Temperature 26 °F -  
Max Temperature 39 °F 48 °F 69 °F (1964)
Min Temperature 14 °F 28 °F 11 °F (1986)
Degree Days  
Heating Degree Days 38    
Moisture  
Dew Point 20 °F    
Average Humidity 76    
Maximum Humidity 89    
Minimum Humidity 59    
Precipitation  
Precipitation 0.00 in - - ()
Sea Level Pressure  
Sea Level Pressure 30.41 in    
Wind  
Wind Speed 0 mph ()    
Max Wind Speed 7 mph    
Max Gust Speed -    
Visibility 10.0 miles    
Events      
Averages and records for this station are not official NWS values.
T = Trace of Precipitation, MM = Missing Value Source: Averaged Metar Reports

Daily Weather History Graph

Daily Weather History Graph

Search for Another Location

Airport or City:

Astronomy

Nov. 14, 2019 Rise Set
Actual Time 6:36 AM EST 4:29 PM EST
Civil Twilight 6:06 AM EST 4:59 PM EST
Nautical Twilight 5:33 AM EST 5:32 PM EST
Astronomical Twilight 5:00 AM EST 6:05 PM EST
Moon 6:11 PM EST (11/14) 8:29 AM EST (11/14)
Length of Visible Light 10h 52m
Length of Day
9h 52m
Waning Gibbous, 95% of the Moon is Illuminated
Nov 14
Waning Gibbous
Nov 19
Last Quarter
Nov 26
New
Dec 4
First Quarter
Dec 12
Full

Hourly Weather History & Observations

Time (EST) Temp. Windchill Dew Point Humidity Pressure Visibility Wind Dir Wind Speed Gust Speed Precip Events Conditions
12:52 AM 17.1 °F - 10.0 °F 74% 30.48 in 10.0 mi Calm Calm - N/A   Clear
1:52 AM 17.1 °F - 10.9 °F 77% 30.49 in 10.0 mi Calm Calm - N/A   Clear
2:52 AM 16.0 °F - 10.9 °F 81% 30.50 in 10.0 mi Calm Calm - N/A   Clear
3:52 AM 15.1 °F - 10.9 °F 84% 30.49 in 10.0 mi Calm Calm - N/A   Clear
4:52 AM 15.1 °F - 10.9 °F 84% 30.50 in 10.0 mi Calm Calm - N/A   Clear
5:52 AM 14.0 °F - 10.9 °F 88% 30.49 in 10.0 mi Calm Calm - N/A   Clear
6:52 AM 15.1 °F - 12.0 °F 88% 30.49 in 10.0 mi Calm Calm - N/A   Clear
7:52 AM 17.1 °F - 12.9 °F 84% 30.51 in - Calm Calm - N/A   Clear
8:52 AM 19.9 °F - 14.0 °F 78% 30.51 in - Calm Calm - N/A   Partly Cloudy
9:52 AM 24.1 °F - 15.1 °F 69% 30.50 in - Calm Calm - N/A   Overcast
10:52 AM 28.0 °F - 17.1 °F 63% 30.47 in - Calm Calm - N/A   Overcast
11:52 AM 34.0 °F - 21.0 °F 59% 30.43 in - Calm Calm - N/A   Overcast
12:52 PM 37.9 °F 32.7 °F 25.0 °F 60% 30.40 in - South 6.9 mph - N/A   Mostly Cloudy
1:52 PM 39.0 °F 34.8 °F 26.1 °F 60% 30.38 in - SSE 5.8 mph - N/A   Scattered Clouds
2:52 PM 39.9 °F 36.7 °F 27.0 °F 60% 30.37 in - South 4.6 mph - N/A   Clear
3:52 PM 39.9 °F - 28.0 °F 63% 30.35 in - Calm Calm - N/A   Clear
4:52 PM 36.0 °F - 28.0 °F 73% 30.35 in - Calm Calm - N/A   Partly Cloudy
5:52 PM 33.1 °F - 27.0 °F 78% 30.34 in - Calm Calm - N/A   Partly Cloudy
6:52 PM 33.1 °F - 27.0 °F 78% 30.33 in - Calm Calm - N/A   Clear
7:52 PM 32.0 °F - 27.0 °F 82% 30.32 in - Calm Calm - N/A   Clear
8:52 PM 30.9 °F - 27.0 °F 85% 30.31 in - Calm Calm - N/A   Clear
9:52 PM 30.9 °F - 27.0 °F 85% 30.30 in - Calm Calm - N/A   Clear
10:52 PM 30.0 °F - 27.0 °F 88% 30.30 in - Calm Calm - N/A   Partly Cloudy
11:52 PM 28.9 °F - 26.1 °F 89% 30.29 in - Calm Calm - N/A   Clear